Buffalo, SD

12:54 PM MST on February 08, 2016 (GMT -0700)
Buffalo

Weather History for K2WX - July, 2012

Change the Weather History Date:

Monday, July 30, 2012

  Actual Average Record
Temperature  
Mean Temperature 78 °F 72 °F  
Max Temperature 94 °F 87 °F 105 °F (2006)
Min Temperature 62 °F 59 °F 48 °F (2004)
Degree Days  
Heating Degree Days 0 0  
Month to date heating degree days 5 21  
Since 1 June heating degree days 39 135  
Since 1 July heating degree days 5 21  
Cooling Degree Days 13 8  
Month to date cooling degree days 388 201  
Year to date cooling degree days 577 269  
Since 1 June cooling degree days 562 263  
Growing Degree Days 28 (Base 50)    
Moisture  
Dew Point 50 °F    
Average Humidity 49    
Maximum Humidity 78    
Minimum Humidity 20    
Precipitation  
Precipitation 0.00 in 0.05 in 0.02 in (1999)
Month to date precipitation 2.44 2.00  
Year to date precipitation 7.00 10.67  
Sea Level Pressure  
Sea Level Pressure 29.92 in    
Wind  
Wind Speed 11 mph (ESE)    
Max Wind Speed 18 mph    
Max Gust Speed 23 mph    
T = Trace of Precipitation, MM = Missing Value Source: NWS Daily Summary

Daily Weather History Graph

Daily Weather History Graph

Search for Another Location

Airport or City:

Trip Planner

Search our weather history database for the weather conditions in past years. The results will help you decide how hot, cold, wet, or windy it might be!

Date:

Astronomy

Jul. 30, 2012 Rise Set
Actual Time 5:36 AM MDT 8:24 PM MDT
Civil Twilight 5:01 AM MDT 8:58 PM MDT
Nautical Twilight 4:17 AM MDT 9:41 PM MDT
Astronomical Twilight 3:26 AM MDT 10:32 PM MDT
Moon 6:29 PM MDT (7/30) 2:50 AM MDT (7/30)
Length of Visible Light 15h 56m
Length of Day
14h 48m
Waxing Gibbous, 93% of the Moon is Illuminated
Jul 30
Waxing Gibbous
Aug 1
Full
Aug 9
Last Quarter
Aug 17
New
Aug 24
First Quarter

Hourly Weather History & Observations

Time (MDT) Temp. Dew Point Humidity Pressure Visibility Wind Dir Wind Speed Gust Speed Precip Events Conditions
12:56 AM 71.1 °F 51.1 °F 49% 29.89 in - NE 6.9 mph - N/A   Unknown
1:56 AM 66.0 °F 52.0 °F 60% 29.91 in - NE 8.1 mph - N/A   Unknown
2:56 AM 68.0 °F 55.0 °F 63% 29.91 in - NE 15.0 mph - N/A   Unknown
3:56 AM 64.0 °F 54.0 °F 70% 29.91 in - NE 13.8 mph - N/A   Unknown
4:56 AM 63.0 °F 55.0 °F 75% 29.94 in - ENE 10.4 mph - N/A   Unknown
5:56 AM 63.0 °F 55.0 °F 75% 29.98 in - ESE 5.8 mph - N/A   Unknown
6:56 AM 64.0 °F 55.0 °F 73% 30.00 in - North 3.5 mph - N/A   Unknown
7:56 AM 69.1 °F 55.0 °F 61% 29.99 in - ESE 4.6 mph - N/A   Unknown
8:56 AM 73.9 °F 54.0 °F 50% 29.97 in - SSE 10.4 mph - N/A   Unknown
9:56 AM 79.0 °F 52.0 °F 39% 29.97 in - SE 5.8 mph - N/A   Unknown
10:56 AM 84.0 °F 51.1 °F 32% 29.96 in - Variable 4.6 mph - N/A   Unknown
11:56 AM 87.1 °F 51.1 °F 29% 29.95 in - SE 9.2 mph - N/A   Unknown
12:56 PM 89.1 °F 48.9 °F 25% 29.94 in - ESE 8.1 mph - N/A   Unknown
1:56 PM 91.9 °F 46.0 °F 21% 29.93 in - SE 10.4 mph 21.9 mph N/A   Unknown
2:56 PM 91.9 °F 44.1 °F 19% 29.91 in - SE 11.5 mph 20.7 mph N/A   Unknown
3:56 PM 93.0 °F 46.0 °F 20% 29.89 in - SE 11.5 mph 19.6 mph N/A   Unknown
4:56 PM 93.0 °F 46.0 °F 20% 29.88 in - ESE 12.7 mph 23.0 mph N/A   Unknown
5:56 PM 91.9 °F 45.0 °F 20% 29.87 in - ESE 15.0 mph 20.7 mph N/A   Unknown
6:56 PM 90.0 °F 46.9 °F 23% 29.88 in - ESE 15.0 mph - N/A   Unknown
7:56 PM 84.9 °F 48.0 °F 28% 29.88 in - East 13.8 mph - N/A   Unknown
8:56 PM 80.1 °F 48.0 °F 32% 29.90 in - ESE 17.3 mph - N/A   Unknown
9:56 PM 75.0 °F 48.0 °F 38% 29.91 in - East 12.7 mph - N/A   Unknown
10:56 PM 73.9 °F 46.9 °F 38% 29.89 in - SE 12.7 mph - N/A   Unknown
11:56 PM 73.9 °F 48.0 °F 40% 29.88 in - SE 13.8 mph - N/A   Unknown